Location: ???????
(55.3754°N, 39.3545°E)
Time: 18:32:22
(UTC+00:00)

Cosmos 1437 Rocket - Pass Details

Date: 14 April 2026
Orbit: 440 x 476 km, 81.2° (Epoch: 19 May)

Event Time Altitude Azimuth Distance (km) Brightness Sun altitude
Exits shadow 22:55:53 51° 83° (E) 571 3.0 -22.1°
Drops below altitude 10° 22:59:01 10° 23° (NNE) 1,582 6.3 -21.9°
Sets 23:01:08 0° 18° (NNE) 2,463 7.6 -21.8°
